Weather History for KFTK - January, 2013

Change the Weather History Date:

Wednesday, January 16, 2013

  Actual Average Record
Temperature  
Mean Temperature 31 °F -  
Max Temperature 32 °F 38 °F 57 °F (2000)
Min Temperature 30 °F 22 °F -1 °F (2009)
Degree Days  
Heating Degree Days 34    
Moisture  
Dew Point 29 °F    
Average Humidity 93    
Maximum Humidity 100    
Minimum Humidity 87    
Precipitation  
Precipitation 0.00 in - - ()
Sea Level Pressure  
Sea Level Pressure 30.07 in    
Wind  
Wind Speed 4 mph (WNW)    
Max Wind Speed 7 mph    
Max Gust Speed -    
Visibility 7 miles    
Events      
Averages and records for this station are not official NWS values.
T = Trace of Precipitation, MM = Missing Value Source: NWS Daily Summary

Daily Weather History Graph

Daily Weather History Graph

Search for Another Location

Airport or City:

Trip Planner

Search our weather history database for the weather conditions in past years. The results will help you decide how hot, cold, wet, or windy it might be!

Date:

Astronomy

Jan. 16, 2013 Rise Set
Actual Time 7:57 AM EST 5:49 PM EST
Civil Twilight 7:29 AM EST 6:18 PM EST
Nautical Twilight 6:57 AM EST 6:50 PM EST
Astronomical Twilight 6:25 AM EST 7:22 PM EST
Moon 10:40 AM EST (1/16) 11:33 PM EST (1/16)
Length of Visible Light 10h 49m
Length of Day
9h 51m
Waxing Crescent, 28% of the Moon is Illuminated
Jan 16
Waxing Crescent
Jan 18
First Quarter
Jan 26
Full
Feb 3
Last Quarter
Feb 10
New

Hourly Weather History & Observations

Time (EST) Temp. Windchill Dew Point Humidity Pressure Visibility Wind Dir Wind Speed Gust Speed Precip Events Conditions
12:07 AM 30.2 °F 24.3 °F 30.2 °F 100% 30.07 in 7.0 mi NNE 5.8 mph - N/A   Overcast
12:30 AM 30.2 °F 26.7 °F 30.2 °F 100% 30.08 in 8.0 mi North 3.5 mph - N/A   Overcast
12:45 AM 30.2 °F 25.4 °F 30.2 °F 100% 30.09 in 8.0 mi North 4.6 mph - N/A   Overcast
12:55 AM 30.7 °F 27.3 °F 29.5 °F 95% 30.08 in 7.0 mi North 3.5 mph - 0.00 in   Overcast
1:55 AM 30.6 °F 25.8 °F 29.5 °F 96% 30.07 in 6.0 mi NW 4.6 mph - N/A   Overcast
2:55 AM 30.4 °F 24.5 °F 29.3 °F 96% 30.05 in 7.0 mi North 5.8 mph - N/A   Overcast
3:44 AM 30.2 °F 26.7 °F 28.4 °F 93% 30.06 in 7.0 mi NNW 3.5 mph - N/A   Overcast
3:55 AM 30.2 °F 25.4 °F 28.9 °F 95% 30.05 in 7.0 mi North 4.6 mph - N/A   Overcast
4:35 AM 30.2 °F - 28.4 °F 93% 30.05 in 8.0 mi Calm Calm - N/A   Overcast
4:55 AM 30.2 °F - 28.9 °F 95% 30.04 in 8.0 mi Calm Calm - N/A   Overcast
5:00 AM 30.2 °F - 28.4 °F 93% 30.03 in 8.0 mi Calm Calm - N/A   Overcast
5:17 AM 30.2 °F - 28.4 °F 93% 30.04 in 8.0 mi Calm Calm - N/A   Overcast
5:20 AM 30.2 °F - 28.4 °F 93% 30.04 in 8.0 mi Calm Calm - N/A   Overcast
5:38 AM 30.2 °F 24.3 °F 28.4 °F 93% 30.05 in 9.0 mi NW 5.8 mph - N/A   Overcast
5:55 AM 30.2 °F 26.7 °F 28.8 °F 94% 30.05 in 9.0 mi WNW 3.5 mph - N/A   Overcast
5:59 AM 30.2 °F - 28.4 °F 93% 30.05 in 9.0 mi Calm Calm - N/A   Overcast
6:00 AM 30.2 °F - 28.4 °F 93% 30.05 in 9.0 mi Calm Calm - N/A   Overcast
6:02 AM 30.2 °F - 28.4 °F 93% 30.05 in 9.0 mi Calm Calm - N/A   Overcast
6:04 AM 30.2 °F - 28.4 °F 93% 30.04 in 9.0 mi Calm Calm - N/A   Overcast
6:09 AM 30.2 °F - 28.4 °F 93% 30.04 in 8.0 mi Calm Calm - N/A   Overcast
6:15 AM 30.2 °F - 28.4 °F 93% 30.03 in 8.0 mi Calm Calm - N/A   Overcast
6:19 AM 30.2 °F 26.7 °F 28.4 °F 93% 30.03 in 8.0 mi NNW 3.5 mph - N/A   Overcast
6:55 AM 30.2 °F 26.7 °F 28.8 °F 94% 30.02 in 9.0 mi NW 3.5 mph - N/A   Overcast
7:55 AM 30.4 °F 26.9 °F 28.6 °F 93% 30.06 in 10.0 mi WNW 3.5 mph - N/A   Overcast
8:55 AM 30.6 °F 25.8 °F 28.8 °F 93% 30.09 in 3.0 mi West 4.6 mph - N/A   Overcast
9:55 AM 31.1 °F 26.4 °F 29.3 °F 93% 30.12 in 3.0 mi West 4.6 mph - N/A   Overcast
10:10 AM 32.0 °F 28.7 °F 28.4 °F 87% 30.09 in 3.0 mi West 3.5 mph - N/A   Overcast
10:55 AM 31.3 °F 27.9 °F 29.3 °F 92% 30.10 in 3.0 mi West 3.5 mph - N/A   Overcast
11:55 AM 31.6 °F 26.0 °F 28.9 °F 90% 30.08 in 8.0 mi WSW 5.8 mph - N/A   Overcast
12:55 PM 31.5 °F 25.8 °F 28.9 °F 90% 30.07 in 9.0 mi WSW 5.8 mph - N/A   Overcast
1:55 PM 31.6 °F 26.0 °F 28.9 °F 90% 30.06 in 6.0 mi West 5.8 mph - N/A   Mostly Cloudy
2:55 PM 32.2 °F 26.7 °F 29.3 °F 89% 30.08 in 6.0 mi SW 5.8 mph - N/A   Overcast
3:55 PM 32.2 °F 26.7 °F 29.1 °F 88% 30.09 in 6.0 mi SW 5.8 mph - N/A   Overcast
4:55 PM 32.0 °F 26.4 °F 29.7 °F 91% 30.09 in 6.0 mi WSW 5.8 mph - N/A   Overcast
5:55 PM 31.6 °F 26.0 °F 29.3 °F 91% 30.10 in 6.0 mi SW 5.8 mph - N/A   Overcast
6:55 PM 31.5 °F 24.9 °F 29.5 °F 92% 30.12 in 6.0 mi SW 6.9 mph - N/A   Overcast
7:55 PM 31.3 °F 26.6 °F 29.3 °F 92% 30.12 in 9.0 mi WSW 4.6 mph - N/A   Scattered Clouds
8:55 PM 30.9 °F 26.2 °F 29.1 °F 93% 30.14 in 9.0 mi SW 4.6 mph - N/A   Clear
9:55 PM 30.7 °F 24.1 °F 28.9 °F 93% 30.13 in 9.0 mi SSW 6.9 mph - N/A   Scattered Clouds
10:55 PM 30.2 °F 23.4 °F 28.6 °F 94% 30.13 in 8.0 mi West 6.9 mph - N/A   Overcast
11:55 PM 30.0 °F 24.1 °F 28.2 °F 93% 30.14 in 7.0 mi West 5.8 mph - N/A   Partly Cloudy